Location: Unspecified
(48.7670°N, 0.0000°E)
Time: 13:50:01
(UTC+00:00)

A-11 Canister half - Pass Details

Date: 27 June 2019
Orbit: 1526 x 1683 km, 47.3° (Epoch: 22 July)

Event Time Altitude Azimuth Distance (km) Brightness Sun altitude
Exits shadow 01:04:21 12° 157° (SSE) 3,634 10.5 -16.6°
Maximum altitude 01:08:51 17° 127° (SE) 3,249 10.5 -16.4°
Drops below altitude 10° 01:14:11 10° 92° (E) 3,733 11.2 -16.2°
Sets 01:18:39 0° 73° (ENE) 4,700 12.1 -15.9°
